Location: Newark
(39.6867°N, 100.6772°W)
Time: 10:22:36
(UTC+00:00)

ISS - Pass Details

Date: 22 September 2019
Orbit: 411 x 421 km, 51.6° (Epoch: 16 October)

Event Time Altitude Azimuth Distance (km) Brightness Sun altitude
Rises 02:19:01 0° 258° (WSW) 2,335 1.1 -19.3°
Reaches altitude 10° 02:21:16 10° 270° (W) 1,475 0.1 -19.7°
Maximum altitude 02:24:12 29° 332° (NNW) 794 -1.9 -20.2°
Enters shadow 02:25:41 20° 16° (NNE) 1,014 -1.8 -20.5°
